Temperature
12 12 12 12 12 12 12 12 12 13 13 13 12 12 12 12 12 12 12 12 12 12 12 12 12 12 12 12 12 12 12 12 12 12 12 12 12 12
12 12 12 12 12 12 11 11 11 12 12 12 12 12 12 11 12 11 11 11 11 12 12 12 12 11 11 12 12 12 11 11 11 11 11 11 11 11
12 11 11 11 11 11 11 11 11 11 11 12 12 11 11 11 11 11 11 11 11 11 11 11 11 11 11 11 11 11 11 11 11 11 11 11 11 11
11 11 11 11 11 11 11 11 11 11 11 11 11 11 11 11 11 11 11 11 11 11 11 11 11 11 11 11 11 11 11 11 11 11 11 11 11 11
11 11 11 10 10 10 10 10 10 10 10 11 11 11 10 10 10 10 10 11 11 11 11 11 11 11 11 11 11 11 11 11 11 11 11 11 11 11
11 10 10 10 10 10 10 10 10 10 10 10 10 10 10 10 10 10 10 10 10 10 10 10 10 10 10 10 10 10 10 10 10 10 10 10 10 10
10 10 10 10 10 10 10 10 9 9 10 10 10 10 10 10 10 10 10 10 10 10 10 10 10 10 10 10 10 10 10 10 10 10 10 10 10 10
10 10 10 9 9 9 9 9 9 9 9 9 9 9 9 9 9 9 9 9 9 9 9 9 10 9 10 10 10 10 10 10 10 10 10 10 10 10
9 9 9 9 9 9 9 9 9 9 9 8 9 9 9 9 9 9 9 9 9 9 9 9 9 9 9 9 10 10 10 9 9 9 9 9 9 9
9 9 9 9 9 9 8 8 8 8 9 8 8 9 9 9 9 9 9 9 9 9 9 9 9 9 9 9 9 10 9 9 9 9 9 9 9 9
9 9 9 8 9 9 8 8 8 8 8 9 9 9 9 9 9 9 9 8 8 9 9 8 8 8 9 9 9 9 9 9 9 9 9 9 9 9
9 8 9 8 8 8 8 8 8 8 8 8 8 8 8 8 8 8 8 8 8 8 8 8 8 8 8 8 9 9 9 9 9 9 9 9 9 8
8 8 8 8 8 8 8 8 8 8 7 8 8 8 8 8 8 8 8 8 7 7 8 8 7 7 7 8 8 8 8 8 8 8 8 8 8 8
8 8 8 8 8 8 7 7 8 7 7 7 7 7 7 7 8 8 8 7 7 7 7 7 7 7 7 7 7 8 8 8 8 8 8 8 8 8
7 7 7 7 7 7 7 7 7 7 7 7 7 7 7 7 7 7 7 7 7 7 7 7 7 7 7 7 7 7 7 7 7 7 8 8 8 8
7 7 7 7 7 7 7 7 6 6 7 7 7 6 7 7 7 7 7 7 7 7 7 7 7 6 7 7 7 7 7 7 7 7 7 7 7 7
6 6 6 6 6 6 6 6 6 6 6 6 6 6 6 6 6 6 6 6 6 6 6 6 6 6 6 6 6 6 6 6 6 6 7 7 7 7
6 5 5 5 5 5 5 5 5 5 5 5 5 5 5 6 6 6 6 6 5 5 5 6 6 6 6 6 6 6 6 6 6 6 6 6 6 6
5 5 5 5 5 5 5 5 5 5 5 5 5 5 5 5 5 5 5 5 5 5 5 5 5 5 5 5 5 5 5 5 5 5 5 5 5 6
4 4 4 4 4 4 4 4 4 4 4 4 4 4 5 4 4 5 4 4 4 4 4 4 5 5 4 4 4 5 5 5 5 4 4 4 5 5
4 4 4 4 4 4 4 4 4 4 4 4 4 4 4 4 4 4 4 4 4 4 4 4 4 4 4 4 4 4 4 4 4 4 4 4 4 4
4 3 3 3 3 3 3 3 3 3 3 3 3 3 4 3 3 3 4 3 3 3 3 3 4 4 3 3 3 4 4 4 4 4 4 4 3 3
3 3 3 3 3 2 2 3 3 3 2 2 3 3 3 3 3 3 3 3 3 3 3 3 3 3 3 3 3 3 3 3 3 3 3 4 3 3
Wind_Speed
2 2 2 2 2 2 2 3 3 4 4 2 2 2 2 2 1 3 2 2 3 3 4 4 4 4 4 5 5 5 6 6 6 6 6 6 6 5
2 3 2 2 2 2 3 3 4 4 4 3 3 3 2 3 3 4 3 3 5 5 5 5 5 5 5 6 6 6 6 6 6 7 7 6 6 6
3 3 3 2 2 3 3 3 3 4 5 5 3 3 3 4 3 4 4 4 4 6 6 6 6 6 6 7 6 7 7 7 7 7 7 7 6 6
3 3 2 2 3 3 3 3 3 4 5 6 5 4 5 4 4 5 4 4 5 5 7 7 7 7 7 8 7 8 8 7 7 7 7 8 8 7
2 3 3 3 3 3 3 3 3 4 4 5 5 4 4 4 4 5 5 4 5 5 7 8 9 9 9 9 8 8 8 8 8 8 8 8 9 8
2 2 3 3 3 4 3 3 4 4 5 5 4 4 4 4 4 4 4 4 5 5 5 6 7 9 10 10 10 9 8 8 8 8 8 9 9 9
3 3 2 2 3 3 3 3 4 4 4 4 4 4 4 3 4 4 5 5 5 4 4 5 5 6 7 9 10 9 9 8 8 8 9 9 9 9
3 3 2 3 2 3 3 4 5 5 4 4 4 5 6 5 4 5 5 5 4 3 5 6 5 6 6 6 6 7 8 9 9 9 9 9 9 9
3 3 2 2 3 4 4 6 6 5 6 6 6 6 6 6 5 6 6 6 6 4 5 6 5 6 6 6 5 7 8 9 9 8 8 8 9 9
3 3 3 3 3 4 4 4 4 4 5 6 7 6 6 6 6 7 7 6 6 4 3 5 5 6 5 6 5 7 7 8 8 8 8 8 8 9
3 3 3 3 1 4 5 5 5 4 4 5 6 6 6 6 6 5 5 5 5 4 3 4 5 6 6 5 4 6 8 8 8 8 8 8 8 9
2 2 1 3 3 3 5 5 5 5 5 4 5 6 6 5 5 6 5 6 6 5 2 4 5 4 5 4 4 5 6 7 8 9 8 8 7 7
2 2 1 1 3 3 5 5 5 6 5 5 4 4 4 4 4 5 5 6 7 6 4 3 5 5 5 5 5 5 5 5 6 7 8 9 9 8
2 2 2 2 2 3 4 4 5 6 4 4 4 4 4 4 4 5 6 6 7 7 6 5 5 6 6 7 6 5 4 5 5 5 5 6 8 10
2 2 3 2 3 3 2 4 5 4 4 4 4 5 5 5 5 5 6 6 7 7 6 6 6 6 7 7 6 6 6 5 5 5 5 5 5 5
1 0 1 2 3 3 3 3 3 3 4 4 5 5 5 4 4 4 5 5 5 5 5 6 7 6 6 7 6 6 6 4 4 5 5 5 6 6
2 2 2 2 2 2 3 3 3 4 4 4 5 5 5 5 5 4 4 5 5 6 5 4 5 5 6 6 6 6 6 6 5 5 5 5 6 5
2 2 3 3 3 3 4 4 4 4 5 5 5 5 5 5 5 5 5 5 6 6 5 4 3 4 4 4 4 6 6 6 6 5 5 6 7 6
3 3 3 3 3 4 4 4 5 5 5 5 5 5 6 5 5 5 5 6 6 6 5 4 4 4 6 7 4 4 6 6 6 5 5 6 7 6
3 3 4 4 4 4 5 5 5 5 5 5 5 6 6 6 6 6 6 7 7 7 6 5 4 5 7 8 6 6 6 6 6 6 6 6 6 6
3 4 4 4 4 5 5 5 5 5 6 5 5 6 6 6 6 6 6 7 8 7 7 6 6 6 6 5 5 6 5 5 6 6 6 6 6 5
4 4 4 4 5 5 5 5 5 5 6 5 6 6 6 6 6 7 7 7 7 7 8 6 5 4 5 6 6 7 7 5 4 6 6 6 5 4
4 4 4 4 4 4 4 5 6 6 5 5 6 6 6 6 6 6 7 7 7 7 7 6 5 5 5 6 6 6 7 6 4 4 5 5 8 10
Wind_Direction
244 242 247 250 252 253 253 254 269 274 271 266 255 249 253 255 226 243 248 172 215 249 265 271 262 266 280 284 286 285 285 288 291 293 293 293 293 290
240 246 248 249 254 252 250 255 264 271 277 280 273 274 279 264 243 258 257 198 218 234 254 261 254 255 263 269 274 281 282 281 284 286 286 287 279 278
234 243 247 259 255 251 251 254 255 261 267 276 278 277 270 268 260 260 256 250 233 211 234 251 251 251 257 266 269 275 276 272 275 278 279 280 273 269
249 255 260 257 259 260 260 258 258 260 266 273 277 280 280 280 275 269 264 259 262 215 221 243 251 253 257 261 265 269 267 266 269 271 271 274 269 263
247 252 261 261 259 258 261 264 265 264 261 262 273 282 277 280 277 270 269 265 263 240 222 235 245 250 254 257 261 267 263 263 264 265 268 272 268 261
247 255 265 265 267 265 261 268 271 269 262 264 270 272 272 278 273 269 270 266 266 258 249 251 247 245 248 253 256 258 260 264 261 262 265 270 265 261
246 246 256 291 324 305 292 284 277 266 261 264 268 275 274 279 282 276 276 277 270 262 270 263 253 254 253 247 246 252 253 257 262 264 268 268 263 263
247 250 243 236 226 230 265 288 291 275 271 267 268 269 276 273 282 281 282 281 278 263 276 274 263 264 262 262 251 246 250 256 260 261 263 267 267 268
256 253 253 261 259 255 234 228 240 252 267 272 268 274 279 282 280 277 279 279 282 288 279 275 269 270 273 269 236 239 250 258 259 257 261 267 268 266
261 264 256 257 271 280 268 260 260 256 253 259 269 276 282 289 281 276 279 281 283 279 268 277 280 280 282 271 225 226 240 251 257 258 261 264 265 266
266 275 277 270 319 288 269 266 267 268 246 253 273 280 294 298 294 275 276 273 276 272 260 278 288 290 282 272 252 226 234 241 248 254 259 262 265 265
268 275 324 309 323 295 274 272 271 276 277 260 249 249 259 256 248 261 268 272 277 271 255 268 281 289 280 272 277 263 249 238 241 244 247 253 260 265
276 282 307 337 315 293 282 278 290 293 284 280 275 270 266 268 263 262 265 266 269 268 268 257 270 272 270 280 283 276 269 266 257 250 239 239 244 254
288 297 336 357 315 291 281 302 291 280 276 275 275 275 275 278 278 278 274 269 267 273 273 260 265 268 270 275 282 282 279 278 273 275 270 244 243 246
308 356 344 325 288 270 278 292 279 272 275 273 277 280 282 284 285 284 279 276 273 272 273 265 266 268 266 270 276 283 283 280 271 277 278 271 266 263
280 269 235 251 263 290 289 275 279 287 280 274 276 279 284 285 279 278 279 280 277 276 275 275 273 269 267 270 273 277 280 276 278 278 279 278 273 263
290 282 282 276 279 289 292 293 291 287 278 278 278 280 282 281 282 283 280 278 276 280 282 283 283 277 270 273 271 272 276 280 279 279 276 277 276 272
259 259 266 272 277 284 288 291 292 292 290 285 282 280 278 279 282 284 281 282 282 280 283 285 285 289 279 269 256 272 277 280 283 277 271 275 275 275
238 256 265 270 275 279 283 285 286 291 293 289 285 282 278 276 278 280 278 277 278 278 277 277 277 274 278 282 275 245 275 283 283 279 273 274 278 281
247 259 267 272 276 281 283 285 288 289 287 288 285 281 279 276 274 274 272 273 275 277 276 271 269 268 270 278 284 288 257 268 275 275 277 281 282 283
253 260 268 273 276 278 283 287 287 289 288 285 285 285 281 278 278 277 277 277 273 274 275 274 274 272 278 282 281 285 284 257 270 278 285 283 285 281
256 260 266 274 279 280 282 283 285 286 289 290 289 288 287 283 281 281 281 281 277 273 275 280 288 278 270 266 275 287 294 299 281 268 276 278 281 277
261 265 269 273 274 276 277 278 280 284 287 289 292 292 291 286 282 280 281 279 280 278 278 277 280 277 271 269 275 281 288 295 300 297 289 272 267 272
Height
1530 1530 1530 1530 1530 1530 1530 1531 1532 1530 1529 1529 1528 1527 1526 1525 1524 1523 1523 1522 1521 1520 1520 1519 1518 1517 1517 1516 1515 1515 1514 1513 1512 1512 1511 1510 1510 1509
1528 1528 1528 1528 1528 1528 1527 1528 1528 1528 1528 1527 1526 1525 1524 1523 1522 1521 1521 1519 1519 1518 1517 1516 1516 1515 1514 1513 1512 1512 1511 1510 1509 1508 1508 1507 1506 1506
1527 1526 1526 1526 1525 1525 1525 1525 1525 1525 1525 1524 1524 1523 1522 1521 1520 1519 1518 1517 1516 1515 1514 1514 1513 1512 1511 1510 1509 1508 1507 1506 1506 1505 1504 1504 1503 1503
1524 1524 1524 1523 1523 1523 1523 1523 1522 1522 1522 1521 1521 1520 1519 1518 1517 1516 1516 1515 1514 1512 1511 1511 1510 1509 1508 1507 1506 1504 1503 1503 1502 1501 1501 1500 1500 1499
1522 1522 1521 1521 1521 1520 1520 1520 1520 1519 1519 1519 1518 1517 1516 1515 1514 1513 1513 1512 1511 1509 1508 1507 1506 1505 1504 1503 1502 1501 1500 1499 1498 1497 1497 1496 1495 1495
1519 1519 1519 1518 1518 1518 1517 1517 1517 1516 1516 1516 1515 1514 1513 1512 1512 1511 1510 1509 1507 1507 1505 1504 1503 1501 1500 1499 1498 1497 1496 1495 1494 1493 1493 1492 1491 1490
1517 1516 1516 1515 1515 1514 1514 1514 1513 1513 1513 1512 1512 1511 1510 1509 1509 1508 1507 1505 1504 1503 1502 1501 1500 1498 1497 1495 1495 1494 1493 1492 1490 1489 1488 1487 1486 1485
1514 1514 1513 1512 1512 1511 1511 1510 1510 1510 1510 1509 1509 1508 1508 1507 1506 1505 1504 1503 1501 1500 1499 1497 1496 1495 1494 1493 1491 1491 1489 1488 1487 1486 1485 1483 1482 1480
1512 1511 1511 1510 1509 1509 1508 1507 1507 1506 1506 1506 1506 1505 1504 1503 1502 1501 1500 1499 1498 1497 1495 1494 1493 1491 1491 1489 1488 1487 1486 1485 1483 1482 1481 1480 1478 1477
1509 1508 1508 1507 1506 1506 1505 1505 1504 1504 1503 1503 1502 1501 1501 1500 1499 1498 1497 1496 1495 1494 1492 1491 1490 1488 1487 1485 1484 1483 1482 1481 1480 1479 1477 1476 1475 1474
1506 1505 1505 1504 1503 1502 1502 1502 1501 1500 1499 1498 1498 1497 1497 1496 1495 1495 1494 1493 1491 1490 1489 1488 1487 1485 1483 1482 1480 1479 1478 1477 1477 1475 1474 1473 1472 1471
1503 1502 1501 1501 1500 1499 1499 1499 1498 1497 1496 1496 1495 1494 1493 1493 1492 1491 1490 1489 1488 1487 1486 1484 1483 1482 1480 1479 1477 1476 1475 1474 1473 1472 1471 1470 1469 1468
1500 1499 1498 1497 1496 1496 1495 1495 1494 1494 1493 1492 1491 1491 1490 1489 1488 1488 1487 1486 1485 1484 1483 1481 1480 1479 1478 1475 1474 1473 1471 1470 1469 1468 1467 1466 1465 1464
1496 1496 1495 1494 1493 1493 1492 1491 1491 1490 1490 1489 1488 1487 1486 1485 1484 1484 1483 1482 1481 1479 1478 1477 1476 1475 1474 1472 1470 1469 1468 1467 1466 1464 1463 1462 1461 1460
1493 1492 1492 1491 1490 1490 1489 1488 1488 1487 1486 1485 1484 1484 1483 1482 1481 1480 1479 1477 1476 1475 1474 1473 1472 1471 1470 1468 1466 1465 1463 1462 1461 1460 1459 1458 1457 1456
1490 1489 1489 1488 1487 1487 1486 1485 1485 1483 1482 1481 1480 1479 1479 1478 1477 1475 1474 1473 1472 1471 1470 1468 1467 1466 1465 1463 1462 1461 1460 1458 1457 1456 1455 1454 1453 1452
1486 1486 1486 1485 1484 1483 1483 1482 1481 1480 1478 1477 1477 1475 1474 1474 1473 1471 1470 1469 1468 1466 1464 1463 1462 1461 1460 1459 1458 1457 1456 1454 1453 1451 1450 1449 1448 1447
1483 1482 1482 1482 1481 1480 1479 1478 1477 1476 1475 1473 1472 1471 1470 1469 1468 1467 1466 1465 1463 1462 1460 1459 1457 1456 1456 1454 1454 1452 1451 1450 1448 1447 1446 1444 1443 1442
1479 1479 1479 1478 1477 1476 1475 1474 1473 1472 1471 1469 1468 1467 1466 1465 1464 1463 1462 1460 1459 1458 1456 1455 1454 1453 1451 1450 1449 1448 1446 1445 1444 1442 1441 1440 1438 1437
1475 1475 1475 1474 1473 1472 1471 1470 1469 1468 1466 1465 1464 1463 1462 1461 1459 1458 1457 1456 1455 1453 1452 1451 1449 1448 1447 1446 1445 1443 1442 1441 1439 1438 1436 1435 1433 1432
1472 1471 1471 1470 1469 1468 1467 1466 1465 1463 1462 1461 1460 1458 1457 1456 1455 1454 1453 1451 1450 1448 1447 1446 1444 1444 1443 1442 1440 1438 1437 1436 1435 1433 1432 1431 1429 1427
1468 1467 1467 1466 1465 1464 1463 1461 1460 1459 1457 1456 1455 1453 1452 1451 1450 1449 1448 1446 1445 1443 1442 1441 1440 1439 1438 1437 1435 1434 1432 1431 1430 1429 1428 1427 1425 1423
1464 1463 1462 1462 1461 1460 1458 1457 1456 1455 1453 1451 1450 1448 1447 1446 1445 1444 1443 1441 1440 1438 1437 1436 1435 1434 1433 1432 1431 1429 1428 1427 1425 1424 1423 1423 1422 1420